Terug naar catalogus

DELTA 1 DEB

ActiefSSO
NORAD 10647·DEBRIS·🇺🇸 United States

Gelanceerd Jul 29, 1976 vanaf Vandenberg Space Force Base

Loading…

Volgende Passages (komende 24 uur)

TLE

VersSource: Space-Track

Epoch: Sep 13, 2026, 04:50 UTC

1 10647U 76077H   26256.20148433  .00000056  00000-0  10490-2 0  9998
2 10647 102.7604 353.3030 0164891 337.3944  49.2982 12.11312390216881

Volg DELTA 1 DEB in realtime met AllMySat

Download on the App Store